• In Hungary
  • List of Countries
  • For 7 days
  • Water Temperature
  • Satellite Maps
  • Weather Map
  • News
  • Weather Widgets
  • user-avatar
    Login

    Hourly Weather Kavango

    Today, 23 September, Sunday

    Time Temperature Precipitation Wind Pressure Humidity
    00:00 +24°C° 0 mm 2 mps 664 mmHg 22%
    01:00 +24°C° 0 mm 2 mps 664 mmHg 23%
    02:00 +23°C° 0 mm 2 mps 664 mmHg 24%
    03:00 +23°C° 0 mm 2 mps 664 mmHg 25%
    04:00 +21°C° 0 mm 2 mps 663 mmHg 27%
    05:00 +24°C° 0 mm 3 mps 664 mmHg 26%
    06:00 +26°C° 0 mm 4 mps 665 mmHg 26%
    07:00 +28°C° 0 mm 4 mps 666 mmHg 25%
    08:00 +30°C° 0 mm 4 mps 666 mmHg 22%
    09:00 +33°C° 0 mm 5 mps 666 mmHg 19%
    10:00 +36°C° 0 mm 5 mps 667 mmHg 16%
    11:00 +37°C° 0 mm 4 mps 666 mmHg 15%
    12:00 +38°C° 0 mm 4 mps 665 mmHg 13%
    13:00 +40°C° 0 mm 4 mps 665 mmHg 12%
    14:00 +38°C° 0 mm 3 mps 664 mmHg 12%
    15:00 +38°C° 0 mm 3 mps 664 mmHg 13%
    16:00 +37°C° 0 mm 3 mps 664 mmHg 13%
    17:00 +35°C° 0 mm 3 mps 663 mmHg 15%
    18:00 +31°C° 0 mm 2 mps 663 mmHg 18%
    19:00 +28°C° 0 mm 2 mps 663 mmHg 21%
    20:00 +28°C° 0 mm 2 mps 663 mmHg 21%
    21:00 +27°C° 0 mm 2 mps 664 mmHg 22%
    22:00 +26°C° 0 mm 2 mps 664 mmHg 23%
    23:00 +25°C° 0 mm 2 mps 664 mmHg 23%

    Tomorrow, 24 September, Monday

    Time Temperature Precipitation Wind Pressure Humidity
    00:00 +25°C° 0 mm 2 mps 663 mmHg 23%
    01:00 +24°C° 0 mm 3 mps 663 mmHg 22%
    02:00 +22°C° 0 mm 3 mps 663 mmHg 21%
    03:00 +22°C° 0 mm 3 mps 663 mmHg 19%
    04:00 +21°C° 0 mm 3 mps 663 mmHg 17%
    05:00 +23°C° 0 mm 4 mps 663 mmHg 16%
    06:00 +25°C° 0 mm 4 mps 664 mmHg 15%
    07:00 +26°C° 0 mm 5 mps 665 mmHg 13%
    08:00 +30°C° 0 mm 5 mps 665 mmHg 12%
    09:00 +34°C° 0 mm 5 mps 666 mmHg 10%
    10:00 +37°C° 0 mm 5 mps 666 mmHg 8%
    11:00 +38°C° 0 mm 4 mps 666 mmHg 8%
    12:00 +39°C° 0 mm 3 mps 665 mmHg 8%
    13:00 +41°C° 0 mm 2 mps 665 mmHg 7%
    14:00 +40°C° 0 mm 2 mps 664 mmHg 7%
    15:00 +40°C° 0 mm 1 mps 663 mmHg 7%
    16:00 +39°C° 0 mm 1 mps 663 mmHg 8%
    17:00 +36°C° 0 mm 1 mps 663 mmHg 9%
    18:00 +33°C° 0 mm 1 mps 663 mmHg 10%
    19:00 +31°C° 0 mm 1 mps 663 mmHg 12%
    20:00 +30°C° 0 mm 1 mps 663 mmHg 12%
    21:00 +29°C° 0 mm 1 mps 663 mmHg 13%
    22:00 +29°C° 0 mm 2 mps 664 mmHg 13%
    23:00 +28°C° 0 mm 2 mps 663 mmHg 13%

    Day after tomorrow, 25 September, Tuesday

    Time Temperature Precipitation Wind Pressure Humidity
    00:00 +27°C° 0 mm 2 mps 663 mmHg 13%
    01:00 +27°C° 0 mm 2 mps 662 mmHg 13%
    02:00 +26°C° 0 mm 2 mps 662 mmHg 14%
    03:00 +25°C° 0 mm 2 mps 662 mmHg 14%
    04:00 +24°C° 0 mm 3 mps 661 mmHg 15%
    05:00 +25°C° 0 mm 3 mps 662 mmHg 15%
    06:00 +26°C° 0 mm 3 mps 663 mmHg 15%
    07:00 +27°C° 0 mm 3 mps 664 mmHg 15%
    08:00 +30°C° 0 mm 3 mps 664 mmHg 13%
    09:00 +34°C° 0 mm 4 mps 665 mmHg 12%
    10:00 +37°C° 0 mm 5 mps 665 mmHg 10%
    11:00 +38°C° 0 mm 4 mps 665 mmHg 10%
    12:00 +41°C° 0 mm 4 mps 664 mmHg 9%
    13:00 +42°C° 0 mm 3 mps 663 mmHg 9%
    14:00 +40°C° 0 mm 3 mps 663 mmHg 9%
    15:00 +39°C° 0 mm 3 mps 663 mmHg 10%
    16:00 +39°C° 0 mm 2 mps 662 mmHg 10%
    17:00 +37°C° 0 mm 2 mps 662 mmHg 12%
    18:00 +34°C° 0 mm 1 mps 663 mmHg 14%
    19:00 +31°C° 0 mm 1 mps 663 mmHg 16%
    20:00 +31°C° 0 mm 1 mps 663 mmHg 16%
    21:00 +30°C° 0 mm 1 mps 663 mmHg 17%
    22:00 +29°C° 0 mm 2 mps 663 mmHg 18%
    23:00 +29°C° 0 mm 2 mps 663 mmHg 18%

    26 September, Wednesday

    Time Temperature Precipitation Wind Pressure Humidity
    00:00 +28°C° 0 mm 2 mps 663 mmHg 19%
    01:00 +27°C° 0 mm 2 mps 662 mmHg 20%
    02:00 +27°C° 0 mm 2 mps 662 mmHg 21%
    03:00 +27°C° 0 mm 2 mps 662 mmHg 22%
    04:00 +26°C° 0 mm 2 mps 662 mmHg 23%
    05:00 +27°C° 0 mm 2 mps 663 mmHg 21%
    06:00 +28°C° 0 mm 2 mps 663 mmHg 20%
    07:00 +28°C° 0 mm 2 mps 664 mmHg 18%
    08:00 +31°C° 0 mm 3 mps 665 mmHg 16%
    09:00 +35°C° 0 mm 3 mps 665 mmHg 14%
    10:00 +38°C° 0 mm 3 mps 666 mmHg 11%
    11:00 +40°C° 0 mm 3 mps 665 mmHg 10%
    12:00 +41°C° 0 mm 2 mps 664 mmHg 9%
    13:00 +43°C° 0 mm 2 mps 664 mmHg 9%
    14:00 +42°C° 0 mm 1 mps 663 mmHg 9%
    15:00 +41°C° 0 mm 1 mps 663 mmHg 10%
    16:00 +40°C° 0 mm 1 mps 663 mmHg 10%
    17:00 +37°C° 0 mm 1 mps 663 mmHg 12%
    18:00 +35°C° 0 mm 1 mps 663 mmHg 13%
    19:00 +33°C° 0 mm 1 mps 663 mmHg 15%
    20:00 +32°C° 0 mm 1 mps 663 mmHg 17%
    21:00 +31°C° 0 mm 2 mps 664 mmHg 20%
    22:00 +29°C° 0 mm 2 mps 664 mmHg 22%
    23:00 +28°C° 0.2 mm 2 mps 663 mmHg 27%

    27 September, Thursday

    Time Temperature Precipitation Wind Pressure Humidity
    00:00 +27°C° 0.2 mm 2 mps 663 mmHg 31%
    01:00 +26°C° 0.2 mm 3 mps 663 mmHg 35%
    02:00 +27°C° 0 mm 2 mps 663 mmHg 35%
    03:00 +27°C° 0 mm 2 mps 663 mmHg 36%
    04:00 +27°C° 0 mm 1 mps 663 mmHg 36%
    05:00 +27°C° 0 mm 1 mps 664 mmHg 34%
    06:00 +28°C° 0 mm 2 mps 664 mmHg 33%
    07:00 +29°C° 0 mm 3 mps 665 mmHg 31%
    08:00 +33°C° 0 mm 3 mps 665 mmHg 27%
    09:00 +35°C° 0 mm 4 mps 666 mmHg 22%
    10:00 +38°C° 0 mm 4 mps 666 mmHg 17%
    11:00 +40°C° 0 mm 5 mps 666 mmHg 15%
    12:00 +40°C° 0 mm 5 mps 665 mmHg 14%
    13:00 +41°C° 0 mm 5 mps 664 mmHg 12%
    14:00 +41°C° 0 mm 5 mps 664 mmHg 13%
    15:00 +40°C° 0 mm 4 mps 664 mmHg 13%
    16:00 +40°C° 0 mm 4 mps 663 mmHg 13%
    17:00 +36°C° 0 mm 4 mps 663 mmHg 15%
    18:00 +34°C° 0 mm 3 mps 663 mmHg 18%
    19:00 +30°C° 0 mm 3 mps 663 mmHg 21%
    20:00 +30°C° 0 mm 3 mps 664 mmHg 23%
    21:00 +29°C° 0 mm 3 mps 664 mmHg 26%
    22:00 +28°C° 0 mm 3 mps 664 mmHg 28%
    23:00 +28°C° 0 mm 4 mps 664 mmHg 31%

    28 September, Friday

    Time Temperature Precipitation Wind Pressure Humidity
    00:00 +28°C° 0 mm 4 mps 664 mmHg 33%
    01:00 +28°C° 0 mm 4 mps 664 mmHg 36%
    02:00 +27°C° 0 mm 4 mps 664 mmHg 37%
    03:00 +27°C° 0 mm 3 mps 664 mmHg 38%
    04:00 +26°C° 0 mm 3 mps 664 mmHg 39%
    05:00 +27°C° 0 mm 3 mps 664 mmHg 38%
    06:00 +28°C° 0 mm 4 mps 665 mmHg 36%
    07:00 +28°C° 0 mm 4 mps 665 mmHg 34%
    08:00 +32°C° 0 mm 4 mps 666 mmHg 28%
    09:00 +35°C° 0 mm 4 mps 666 mmHg 22%
    10:00 +37°C° 0 mm 5 mps 667 mmHg 16%
    11:00 +38°C° 0 mm 4 mps 666 mmHg 15%
    12:00 +40°C° 0 mm 4 mps 665 mmHg 14%
    13:00 +41°C° 0 mm 4 mps 665 mmHg 13%
    14:00 +39°C° 0 mm 3 mps 664 mmHg 13%
    15:00 +38°C° 0 mm 3 mps 664 mmHg 14%
    16:00 +38°C° 0 mm 3 mps 664 mmHg 14%
    17:00 +36°C° 0.1 mm 3 mps 664 mmHg 17%
    18:00 +34°C° 0.1 mm 2 mps 664 mmHg 19%
    19:00 +31°C° 0.1 mm 2 mps 664 mmHg 22%
    20:00 +30°C° 0 mm 2 mps 664 mmHg 24%
    21:00 +29°C° 0 mm 2 mps 664 mmHg 26%
    22:00 +28°C° 0 mm 2 mps 664 mmHg 28%
    23:00 +27°C° 0 mm 2 mps 663 mmHg 29%
    Show more